Wind_Speed
12 13 14 15 16 16 17 18 18 18 18 17 17 17 17 16 17 18 18 17 17 16 13 12 13 12 12 12 13 15 14 13 15 13 16 16 19 22 23 23 24 26 30 33 34
13 15 16 17 17 17 18 18 18 19 19 19 18 17 16 16 17 18 16 13 13 8 9 12 12 13 13 12 14 15 15 11 15 15 15 13 16 17 20 22 24 24 25 26 26
14 16 17 18 17 16 16 17 18 19 18 18 17 16 15 15 16 13 7 9 10 10 9 10 11 11 12 13 14 14 16 13 14 14 17 16 16 17 14 13 17 18 20 23 22
15 17 18 17 17 16 16 16 17 18 18 17 16 15 14 13 9 10 7 6 4 4 4 5 7 9 11 14 13 15 13 13 13 15 16 15 11 13 14 14 15 17 19 20 20
14 16 18 19 18 17 17 17 16 17 17 17 16 15 12 9 6 6 3 2 3 5 4 4 6 8 9 10 11 11 11 11 10 12 9 10 12 16 9 13 16 19 21 21 22
14 16 18 20 19 18 18 18 17 18 19 17 17 15 9 5 1 3 5 6 4 3 5 5 6 7 7 8 9 7 8 10 10 9 9 15 14 15 12 14 15 21 22 22 21
14 15 17 19 19 19 18 19 19 19 19 16 15 10 3 3 4 3 6 6 5 5 6 6 6 5 5 6 7 6 7 7 7 9 17 18 12 12 12 16 18 22 24 24 22
14 15 16 17 19 19 19 19 20 21 18 16 13 7 2 5 4 7 9 4 6 7 7 6 5 5 5 5 5 4 3 3 3 14 13 16 20 9 15 21 21 22 27 24 22
15 16 16 16 17 19 20 20 20 21 17 16 10 4 5 3 2 10 5 5 11 7 6 5 6 4 4 3 2 3 4 9 10 14 11 19 23 11 22 23 23 24 28 23 21
15 16 16 16 17 17 19 19 20 21 19 16 5 2 6 2 4 12 3 11 9 6 5 5 6 5 4 4 3 6 10 14 17 9 25 20 27 23 22 28 27 27 25 20 20
17 17 17 16 17 17 18 18 19 19 21 15 8 7 9 1 6 10 6 12 7 5 6 6 6 7 3 3 6 10 14 19 20 22 22 29 31 26 22 10 15 16 17 18 16
18 18 18 15 16 16 16 17 17 15 13 6 6 8 4 4 10 3 11 9 6 5 7 6 7 3 5 9 11 13 17 21 19 12 28 32 33 25 2 11 13 14 12 13 15
18 19 19 16 15 15 15 15 16 16 8 7 7 6 2 8 6 9 7 7 5 6 7 11 7 8 11 10 11 14 18 17 20 26 30 25 18 6 7 14 15 14 15 15 17
18 18 19 17 15 15 15 16 16 15 5 10 8 4 5 10 2 9 7 7 6 6 12 3 2 6 8 9 13 19 12 17 22 21 12 20 8 7 10 12 12 12 14 16 19
20 18 19 18 16 14 14 15 15 12 2 7 8 7 8 10 9 6 6 8 7 11 9 4 8 10 11 10 11 12 16 22 25 28 19 4 6 2 12 10 11 14 12 14 17
21 19 19 18 17 15 14 14 13 2 4 6 7 6 9 10 6 7 6 8 9 6 8 5 8 10 10 11 13 16 19 25 9 4 1 6 3 9 8 9 15 12 9 12 17
23 20 19 19 17 16 14 13 6 6 6 6 6 9 11 7 6 5 8 8 7 5 3 10 8 7 5 7 11 11 16 6 5 3 4 7 10 18 15 15 13 10 13 16 25
24 21 19 19 18 16 14 10 7 7 8 7 8 11 10 5 6 6 10 8 6 5 7 4 1 4 3 7 7 12 5 1 4 3 5 10 9 5 13 21 19 17 17 23 35
27 24 20 20 19 17 14 9 7 9 10 7 10 10 6 5 8 8 8 10 4 3 3 4 4 7 12 11 8 4 3 4 6 7 3 6 10 15 18 21 21 23 27 31 40
28 27 22 21 20 18 17 14 12 12 12 10 7 7 6 8 8 6 6 5 4 5 6 5 9 9 9 10 13 16 13 3 3 3 5 7 10 20 11 16 21 25 31 37 42
30 30 26 22 21 21 21 16 15 15 14 10 9 9 10 9 9 8 6 7 8 6 8 9 9 6 7 6 6 9 11 7 5 5 4 5 8 6 7 15 24 30 34 36 31
33 32 28 24 24 24 25 20 16 15 15 13 11 11 10 8 10 7 8 7 7 8 10 10 9 12 12 15 16 16 18 15 8 6 11 4 17 24 20 18 20 46 33 32 30
36 33 31 26 29 28 25 21 19 18 17 13 11 10 9 10 7 8 9 8 10 10 7 6 8 8 5 3 8 13 14 19 24 26 27 9 13 3 10 35 41 32 31 30 31
37 33 34 33 34 29 26 26 22 20 21 18 15 14 14 13 12 9 9 8 10 10 13 15 16 18 15 12 12 17 23 26 24 21 32 38 55 51 48 43 33 30 31 31 35
41 39 36 21 35 33 28 23 26 26 23 19 18 16 15 13 11 15 13 13 16 16 17 15 24 24 28 29 30 33 34 35 39 45 37 55 39 53 40 33 33 32 29 32 28
45 43 38 36 31 24 30 29 27 25 25 23 18 15 17 19 12 16 16 15 14 15 16 22 24 20 27 32 31 33 33 33 37 39 45 47 49 25 28 28 26 26 30 28 27
48 45 39 34 34 30 32 29 24 25 22 23 20 22 22 15 14 19 17 18 18 22 19 21 18 13 9 12 16 27 14 15 18 21 23 30 29 30 25 27 28 29 28 28 29
Wind_Direction
357 353 351 348 345 343 342 341 339 336 333 329 325 320 318 317 312 305 297 296 289 285 280 263 256 242 237 228 225 234 238 243 242 234 233 238 241 248 255 259 260 262 263 267 265
356 354 351 345 342 339 335 334 332 331 331 331 329 325 321 315 310 303 308 299 285 276 267 257 245 238 233 237 241 245 244 244 241 242 245 244 251 251 258 267 268 268 272 271 271
358 355 351 346 340 335 334 335 336 334 332 331 329 326 323 317 306 306 312 302 287 280 257 248 240 229 232 246 247 244 242 248 252 252 259 261 269 275 269 264 274 269 261 264 270
354 352 350 346 342 339 339 338 340 338 335 335 334 331 327 320 303 300 311 298 294 290 270 252 240 247 254 249 246 247 252 251 249 254 268 274 278 274 287 286 287 292 298 306 317
344 347 349 349 347 344 342 339 343 341 339 338 336 333 329 319 315 314 347 0 321 309 286 262 251 249 248 254 254 251 250 253 243 253 261 267 283 284 290 293 311 311 307 319 316
337 341 347 349 348 346 342 340 342 344 343 343 343 341 336 322 7 56 359 340 333 311 298 292 274 262 254 249 243 246 223 249 243 237 258 287 294 298 296 294 307 309 309 308 308
330 335 340 345 345 342 343 342 340 341 341 343 345 348 18 98 97 44 1 343 344 329 310 299 289 274 259 260 247 242 257 248 238 265 303 299 299 297 288 294 303 303 304 305 307
323 327 333 339 340 339 340 342 339 338 336 340 350 6 103 128 94 16 357 12 352 329 313 304 304 301 273 261 258 256 260 208 254 295 293 301 302 319 296 299 295 298 301 299 300
317 321 326 330 334 334 337 337 336 338 333 340 346 358 165 136 69 8 13 4 339 320 312 301 315 313 297 243 259 238 279 298 312 311 286 302 302 307 306 302 296 291 292 292 295
313 317 320 323 326 330 330 333 334 335 332 333 330 233 177 152 356 359 352 343 332 315 311 301 310 298 279 246 258 286 308 308 314 305 299 301 300 308 317 299 292 288 284 286 292
307 312 315 319 319 323 326 328 333 331 332 318 289 190 171 258 339 343 328 333 324 305 306 298 293 282 241 287 300 311 311 310 319 312 302 316 308 321 310 319 314 308 295 293 290
303 308 311 315 313 316 319 326 327 321 325 306 158 153 158 344 330 338 328 330 324 297 304 305 310 252 275 306 307 312 307 314 316 316 312 313 314 312 255 329 315 316 305 285 289
297 304 306 309 308 311 314 316 320 321 310 190 164 162 143 338 326 327 331 336 321 307 312 313 285 273 290 297 298 299 303 310 309 319 318 310 320 169 292 319 310 288 284 298 300
290 296 299 303 302 305 308 313 317 324 240 197 193 188 325 342 268 321 331 342 328 316 321 328 275 301 292 293 295 300 306 311 312 314 314 307 285 243 274 289 294 287 304 304 299
283 289 293 296 298 298 304 312 317 322 350 193 202 222 312 330 313 306 318 331 326 314 307 280 280 288 289 301 294 297 306 309 303 296 293 246 260 221 296 281 277 302 308 302 305
276 281 286 289 289 291 299 307 314 269 263 208 206 239 301 316 298 309 310 324 322 314 302 278 278 278 292 287 296 299 307 308 306 293 255 172 236 271 259 277 292 285 280 289 301
267 271 277 281 283 289 295 306 298 222 216 222 232 291 299 294 285 288 305 314 307 306 293 300 283 264 275 287 299 308 326 330 342 355 227 198 284 257 263 272 274 268 293 316 321
261 262 267 273 275 281 286 291 244 242 226 237 276 295 291 276 285 279 297 298 286 252 298 314 227 225 256 287 283 307 343 181 255 279 284 257 247 264 244 251 259 278 310 316 331
257 258 257 262 264 271 273 257 243 251 246 248 284 282 249 254 291 299 291 285 250 237 258 298 272 248 269 279 283 286 282 265 262 281 315 242 264 268 254 242 254 278 289 308 318
253 253 252 252 257 256 258 251 246 244 250 254 260 252 240 275 282 286 294 262 256 249 252 284 288 269 258 262 267 259 273 261 250 341 289 274 264 244 245 263 263 277 286 306 308
247 248 248 246 245 247 244 248 248 247 241 242 235 248 263 272 265 276 251 270 265 263 260 275 271 271 265 270 245 239 226 227 224 243 206 301 244 274 260 262 271 293 303 315 318
243 241 244 241 235 237 243 244 241 241 237 236 242 247 248 262 279 270 244 233 271 278 276 267 272 270 277 271 258 245 243 242 214 219 220 263 278 285 270 271 303 312 309 314 317
239 238 238 238 232 235 242 238 234 236 230 233 237 227 241 256 252 261 260 262 265 270 267 265 238 296 281 276 231 236 249 251 249 254 249 242 260 339 287 299 315 313 316 318 320
232 231 232 235 238 241 240 229 232 225 224 233 238 236 245 256 243 258 266 281 273 275 265 273 259 244 242 278 280 269 272 271 260 255 259 237 266 277 293 309 312 312 317 317 322
227 229 232 233 239 240 225 236 228 221 216 225 236 239 241 250 249 254 264 268 278 280 267 253 265 274 281 282 282 281 278 273 263 264 254 273 266 287 303 311 310 309 312 315 317
228 222 228 232 237 220 224 228 235 226 225 230 247 246 238 246 258 270 269 273 273 270 257 256 265 278 281 289 288 282 274 270 269 269 264 272 281 310 306 308 308 303 307 313 322
230 228 226 232 231 224 226 237 248 232 235 238 239 244 246 246 253 254 265 274 267 274 262 262 265 284 280 296 299 290 283 253 273 276 276 266 298 301 302 302 302 303 309 311 318
Height
3120 3117 3114 3111 3109 3106 3104 3102 3099 3097 3095 3093 3090 3088 3085 3083 3082 3079 3077 3077 3074 3073 3074 3074 3074 3075 3076 3077 3079 3079 3080 3079 3079 3080 3079 3082 3083 3083 3083 3083 3083 3083 3082 3082 3083
3117 3115 3112 3110 3107 3105 3102 3100 3098 3095 3093 3090 3087 3085 3083 3081 3078 3076 3075 3073 3071 3071 3071 3071 3072 3073 3074 3075 3076 3076 3076 3076 3076 3077 3078 3079 3079 3081 3081 3080 3079 3079 3078 3077 3075
3116 3113 3110 3107 3105 3103 3101 3099 3096 3093 3091 3088 3085 3082 3080 3078 3076 3074 3073 3072 3072 3070 3069 3070 3070 3072 3073 3074 3073 3073 3074 3074 3074 3074 3074 3076 3077 3077 3077 3077 3075 3075 3074 3073 3074
3115 3113 3110 3107 3104 3102 3099 3096 3093 3091 3088 3085 3083 3080 3077 3075 3077 3073 3072 3071 3071 3070 3069 3069 3070 3070 3071 3070 3071 3072 3071 3072 3073 3072 3072 3072 3074 3073 3072 3072 3071 3068 3067 3066 3065
3115 3112 3109 3105 3102 3099 3096 3094 3091 3089 3086 3083 3080 3077 3074 3073 3073 3072 3071 3071 3070 3069 3069 3068 3068 3068 3068 3068 3069 3069 3069 3069 3070 3070 3071 3071 3070 3069 3069 3067 3065 3063 3061 3061 3060
3112 3110 3107 3104 3101 3097 3095 3092 3089 3086 3083 3081 3077 3074 3072 3072 3071 3071 3070 3070 3069 3068 3067 3067 3066 3066 3066 3067 3067 3067 3067 3068 3068 3069 3069 3067 3066 3063 3064 3062 3061 3059 3057 3057 3055
3109 3107 3105 3102 3099 3097 3093 3090 3087 3084 3081 3078 3076 3072 3071 3072 3071 3071 3069 3068 3068 3067 3066 3065 3064 3065 3065 3065 3065 3065 3066 3066 3067 3067 3064 3062 3062 3061 3060 3058 3057 3055 3054 3052 3050
3107 3105 3102 3100 3097 3094 3092 3088 3085 3083 3079 3076 3073 3071 3071 3071 3071 3071 3069 3068 3066 3065 3065 3064 3064 3063 3063 3063 3063 3064 3065 3065 3065 3064 3061 3059 3056 3058 3056 3054 3053 3050 3048 3048 3047
3104 3102 3099 3097 3094 3092 3090 3087 3084 3080 3077 3074 3071 3071 3071 3072 3071 3070 3068 3067 3065 3064 3063 3062 3062 3062 3062 3062 3062 3062 3063 3062 3062 3061 3058 3057 3051 3054 3052 3048 3046 3044 3042 3043 3043
3101 3099 3097 3094 3092 3089 3087 3084 3081 3078 3075 3072 3070 3072 3071 3071 3069 3068 3067 3066 3064 3062 3062 3062 3061 3061 3061 3060 3061 3060 3060 3058 3058 3059 3053 3051 3046 3046 3045 3039 3037 3036 3036 3038 3038
3098 3096 3094 3091 3090 3087 3085 3082 3080 3076 3072 3070 3068 3067 3069 3069 3067 3066 3065 3064 3062 3061 3060 3059 3060 3059 3059 3059 3059 3058 3057 3054 3054 3052 3046 3044 3038 3038 3035 3032 3031 3031 3032 3033 3032
3094 3092 3090 3088 3086 3084 3082 3079 3076 3075 3070 3068 3067 3067 3067 3067 3066 3064 3064 3063 3060 3058 3058 3059 3057 3057 3057 3057 3056 3055 3053 3052 3049 3048 3044 3037 3031 3029 3030 3029 3028 3028 3028 3027 3027
3090 3088 3086 3085 3083 3081 3078 3076 3073 3070 3068 3067 3066 3066 3066 3065 3062 3063 3062 3060 3058 3057 3056 3055 3056 3055 3055 3055 3054 3053 3051 3049 3048 3043 3040 3033 3026 3025 3026 3026 3025 3024 3023 3023 3023
3084 3084 3082 3081 3081 3077 3075 3073 3070 3067 3064 3065 3065 3064 3064 3062 3062 3059 3058 3059 3056 3055 3053 3053 3053 3053 3053 3053 3052 3050 3049 3047 3045 3043 3040 3036 3032 3025 3024 3023 3021 3020 3019 3020 3019
3079 3078 3078 3076 3075 3073 3072 3069 3067 3065 3066 3065 3062 3062 3061 3062 3061 3058 3057 3055 3053 3053 3053 3053 3051 3050 3050 3051 3050 3049 3046 3044 3040 3038 3037 3033 3033 3019 3019 3019 3019 3018 3017 3017 3015
3073 3073 3072 3072 3071 3069 3067 3066 3065 3065 3061 3060 3059 3059 3059 3057 3056 3055 3055 3054 3052 3050 3049 3048 3048 3048 3048 3048 3047 3046 3044 3040 3034 3033 3035 3029 3031 3017 3016 3016 3015 3014 3014 3012 3009
3066 3067 3067 3066 3066 3065 3063 3063 3064 3059 3058 3058 3057 3056 3056 3054 3054 3053 3052 3051 3050 3049 3047 3047 3045 3045 3046 3046 3045 3044 3042 3038 3038 3036 3034 3029 3028 3014 3013 3012 3011 3010 3009 3008 3004
3059 3060 3060 3060 3061 3060 3060 3061 3058 3054 3053 3053 3053 3053 3053 3053 3052 3051 3049 3048 3046 3047 3046 3044 3044 3044 3044 3045 3045 3043 3044 3045 3049 3046 3033 3029 3019 3010 3008 3008 3007 3007 3006 3003 2999
3053 3052 3053 3054 3054 3055 3055 3054 3050 3049 3051 3050 3051 3049 3051 3051 3051 3049 3046 3045 3045 3045 3047 3044 3042 3042 3042 3042 3044 3042 3043 3043 3042 3037 3034 3018 3012 3008 3005 3005 3005 3004 3002 2999 2993
3045 3045 3046 3047 3048 3048 3048 3046 3045 3044 3045 3047 3047 3047 3047 3047 3047 3046 3044 3043 3043 3044 3044 3044 3041 3038 3039 3040 3041 3040 3042 3042 3041 3044 3036 3012 3008 3002 3003 3004 3004 3002 2999 2995 2989
3037 3037 3038 3040 3040 3040 3038 3037 3038 3039 3040 3043 3042 3043 3044 3044 3043 3042 3041 3041 3040 3041 3042 3042 3042 3039 3037 3036 3036 3037 3037 3038 3039 3038 3038 3027 3001 2998 3000 3001 2999 2998 2994 2988 2982
3027 3028 3030 3031 3034 3031 3031 3030 3032 3032 3034 3036 3037 3038 3038 3039 3038 3038 3037 3038 3038 3039 3039 3039 3037 3033 3033 3032 3032 3032 3032 3033 3034 3032 3031 3028 2995 2995 2995 2995 2995 2991 2984 2981 2977
3015 3020 3021 3024 3022 3023 3024 3024 3024 3026 3028 3030 3032 3032 3034 3035 3036 3033 3033 3035 3035 3036 3035 3035 3033 3032 3028 3029 3028 3027 3028 3028 3028 3027 3020 3025 2993 2987 2988 2990 2989 2982 2978 2975 2971
3007 3009 3011 3013 3014 3016 3018 3018 3018 3019 3021 3023 3026 3028 3029 3030 3031 3029 3029 3030 3031 3031 3031 3031 3027 3027 3026 3025 3026 3024 3024 3023 3023 3019 3006 3000 2981 2986 2986 2985 2981 2977 2973 2969 2964
2993 2996 2999 3000 3005 3008 3011 3013 3011 3011 3015 3017 3018 3021 3024 3025 3025 3024 3026 3026 3026 3026 3026 3027 3021 3020 3018 3017 3016 3013 3012 3012 3010 3003 3004 2978 2991 2980 2982 2979 2975 2970 2967 2963 2959
2980 2986 2990 2992 2997 3001 3003 3004 3006 3005 3008 3011 3013 3015 3017 3019 3021 3021 3020 3021 3022 3021 3020 3019 3016 3012 3008 3009 3006 3001 2996 2995 2992 2991 2989 2983 2973 2981 2977 2973 2970 2966 2962 2958 2954
2970 2976 2982 2983 2988 2992 2994 2997 3002 3002 3004 3005 3008 3008 3010 3014 3014 3015 3014 3015 3016 3015 3016 3016 3013 3011 3003 3002 3000 2992 2980 2981 2981 2980 2980 2977 2974 2972 2970 2968 2965 2961 2957 2953 2949